Time,TemperatureF,DewpointF,PressureIn,WindDirection,WindDirectionDegrees,WindSpeedMPH,WindSpeedGustMPH,Humidity,HourlyPrecipIn,Conditions,Clouds,dailyrainin,SoftwareType,DateUTC
2013-10-14 00:00:00,49.3,44.3,29.92,SSW,202,1.6,7.6,83,0.00,,,0.00,WUHU21623XXSP,2013-10-13 22:00:00,
2013-10-14 00:05:00,49.3,44.3,29.92,WSW,247,2.7,7.6,83,0.00,,,0.00,WUHU21623XXSP,2013-10-13 22:05:00,
2013-10-14 00:10:00,49.5,44.4,29.92,SE,135,7.6,7.6,83,0.00,,,0.00,WUHU21623XXSP,2013-10-13 22:10:00,
2013-10-14 00:15:00,49.6,44.6,29.92,SE,135,2.9,9.2,83,0.00,,,0.00,WUHU21623XXSP,2013-10-13 22:15:00,
2013-10-14 00:20:00,49.5,44.4,29.92,SE,135,3.6,9.2,83,0.00,,,0.00,WUHU21623XXSP,2013-10-13 22:20:00,
2013-10-14 00:25:00,49.5,44.4,29.92,SSW,202,1.3,7.4,83,0.00,,,0.00,WUHU21623XXSP,2013-10-13 22:25:00,
2013-10-14 00:30:00,49.3,44.3,29.92,SE,135,2.2,11.9,83,0.00,,,0.00,WUHU21623XXSP,2013-10-13 22:30:00,
2013-10-14 00:35:00,49.3,44.3,29.92,SSE,157,5.1,11.9,83,0.00,,,0.00,WUHU21623XXSP,2013-10-13 22:35:00,
2013-10-14 00:40:00,49.3,44.3,29.92,South,180,7.2,8.7,83,0.00,,,0.00,WUHU21623XXSP,2013-10-13 22:40:00,
2013-10-14 00:45:00,49.1,44.4,29.92,SSE,157,0.0,8.5,84,0.00,,,0.00,WUHU21623XXSP,2013-10-13 22:45:00,
2013-10-14 00:50:00,48.9,44.2,29.92,SE,135,4.0,8.5,84,0.00,,,0.00,WUHU21623XXSP,2013-10-13 22:50:00,
2013-10-14 00:55:00,48.9,44.2,29.92,SSW,202,5.1,8.5,84,0.00,,,0.00,WUHU21623XXSP,2013-10-13 22:55:00,
2013-10-14 01:00:00,48.7,44.1,29.92,SSE,157,4.0,8.7,84,0.00,,,0.00,WUHU21623XXSP,2013-10-13 23:00:00,
2013-10-14 01:05:00,48.6,43.9,29.92,SSW,202,2.0,8.7,84,0.00,,,0.00,WUHU21623XXSP,2013-10-13 23:05:00,
2013-10-14 01:10:00,48.2,43.9,29.92,SW,225,6.0,9.8,85,0.00,,,0.00,WUHU21623XXSP,2013-10-13 23:10:00,
2013-10-14 01:15:00,48.0,43.7,29.92,SSW,202,7.6,9.8,85,0.00,,,0.00,WUHU21623XXSP,2013-10-13 23:15:00,
2013-10-14 01:20:00,48.0,44.0,29.91,South,180,2.5,8.3,86,0.00,,,0.00,WUHU21623XXSP,2013-10-13 23:20:00,
2013-10-14 01:25:00,48.0,44.0,29.91,South,180,4.7,8.9,86,0.00,,,0.00,WUHU21623XXSP,2013-10-13 23:25:00,
2013-10-14 01:30:00,47.8,43.8,29.91,SE,135,9.8,9.8,86,0.00,,,0.00,WUHU21623XXSP,2013-10-13 23:30:00,
2013-10-14 01:35:00,47.8,44.2,29.91,SSE,157,2.9,12.8,87,0.00,,,0.00,WUHU21623XXSP,2013-10-13 23:35:00,
2013-10-14 01:40:00,47.8,44.2,29.91,SSE,157,10.3,12.8,87,0.00,,,0.00,WUHU21623XXSP,2013-10-13 23:40:00,
2013-10-14 01:45:00,47.8,44.2,29.91,SSE,157,6.7,10.3,87,0.00,,,0.00,WUHU21623XXSP,2013-10-13 23:45:00,
2013-10-14 01:50:00,47.8,44.2,29.91,SE,135,4.0,8.3,87,0.00,,,0.00,WUHU21623XXSP,2013-10-13 23:50:00,
2013-10-14 01:55:00,48.0,44.3,29.91,SSE,157,2.7,10.3,87,0.00,,,0.00,WUHU21623XXSP,2013-10-13 23:55:00,
2013-10-14 02:00:00,48.0,44.3,29.91,SSE,157,4.0,10.3,87,0.00,,,0.00,WUHU21623XXSP,2013-10-14 00:00:00,
2013-10-14 02:05:00,48.0,44.3,29.91,SW,225,2.7,9.2,87,0.00,,,0.00,WUHU21623XXSP,2013-10-14 00:05:00,
2013-10-14 02:10:00,48.0,44.3,29.91,South,180,3.4,7.8,87,0.00,,,0.00,WUHU21623XXSP,2013-10-14 00:10:00,
2013-10-14 02:15:00,48.0,44.3,29.91,SSE,157,6.9,9.4,87,0.00,,,0.00,WUHU21623XXSP,2013-10-14 00:15:00,
2013-10-14 02:20:00,48.0,44.3,29.91,SSE,157,2.2,10.1,87,0.00,,,0.00,WUHU21623XXSP,2013-10-14 00:20:00,
2013-10-14 02:25:00,48.0,44.3,29.91,SSE,157,2.5,10.5,87,0.00,,,0.00,WUHU21623XXSP,2013-10-14 00:25:00,
2013-10-14 02:30:00,48.0,44.3,29.91,SSW,202,5.1,10.5,87,0.00,,,0.00,WUHU21623XXSP,2013-10-14 00:30:00,
2013-10-14 02:35:00,48.0,44.7,29.91,South,180,4.0,11.0,88,0.00,,,0.00,WUHU21623XXSP,2013-10-14 00:35:00,
2013-10-14 02:40:00,48.0,44.7,29.91,South,180,7.6,11.0,88,0.00,,,0.00,WUHU21623XXSP,2013-10-14 00:40:00,
2013-10-14 02:45:00,48.0,44.7,29.91,SSW,202,10.5,10.5,88,0.00,,,0.00,WUHU21623XXSP,2013-10-14 00:45:00,
2013-10-14 02:50:00,48.0,44.7,29.91,SSE,157,8.5,10.5,88,0.00,,,0.00,WUHU21623XXSP,2013-10-14 00:50:00,
2013-10-14 02:55:00,47.8,44.5,29.92,SSW,202,3.6,9.2,88,0.00,,,0.00,WUHU21623XXSP,2013-10-14 00:55:00,
2013-10-14 03:00:00,47.8,44.5,29.91,SE,135,0.0,9.2,88,0.00,,,0.00,WUHU21623XXSP,2013-10-14 01:00:00,
2013-10-14 03:05:00,47.8,44.5,29.91,SSW,202,4.0,4.5,88,0.00,,,0.00,WUHU21623XXSP,2013-10-14 01:05:00,
2013-10-14 03:10:00,47.7,44.6,29.91,ESE,112,4.7,8.7,89,0.00,,,0.00,WUHU21623XXSP,2013-10-14 01:10:00,
2013-10-14 03:15:00,47.7,44.6,29.91,South,180,5.8,11.2,89,0.00,,,0.00,WUHU21623XXSP,2013-10-14 01:15:00,
2013-10-14 03:20:00,47.7,44.6,29.91,SSE,157,7.4,11.2,89,0.00,,,0.00,WUHU21623XXSP,2013-10-14 01:20:00,
2013-10-14 03:25:00,47.5,44.5,29.91,SSE,157,7.8,9.8,89,0.00,,,0.00,WUHU21623XXSP,2013-10-14 01:25:00,
2013-10-14 03:30:00,47.7,44.6,29.91,SSE,157,0.9,7.8,89,0.00,,,0.00,WUHU21623XXSP,2013-10-14 01:30:00,
2013-10-14 03:35:00,47.7,44.6,29.91,SSE,157,7.6,9.4,89,0.00,,,0.00,WUHU21623XXSP,2013-10-14 01:35:00,
2013-10-14 03:40:00,47.8,44.8,29.91,South,180,8.5,9.8,89,0.00,,,0.00,WUHU21623XXSP,2013-10-14 01:40:00,
2013-10-14 03:45:00,47.8,44.8,29.90,SSE,157,3.6,9.8,89,0.00,,,0.00,WUHU21623XXSP,2013-10-14 01:45:00,
2013-10-14 03:50:00,47.8,44.8,29.90,SSW,202,4.0,9.4,89,0.00,,,0.00,WUHU21623XXSP,2013-10-14 01:50:00,
2013-10-14 03:55:00,47.8,44.8,29.90,SSE,157,1.3,11.9,89,0.00,,,0.00,WUHU21623XXSP,2013-10-14 01:55:00,
2013-10-14 04:00:00,47.8,45.1,29.90,South,180,4.7,11.9,90,0.00,,,0.00,WUHU21623XXSP,2013-10-14 02:00:00,
2013-10-14 04:05:00,47.8,45.1,29.90,SSE,157,5.4,5.4,90,0.00,,,0.00,WUHU21623XXSP,2013-10-14 02:05:00,
2013-10-14 04:10:00,47.8,45.1,29.90,South,180,2.0,6.7,90,0.00,,,0.00,WUHU21623XXSP,2013-10-14 02:10:00,
2013-10-14 04:15:00,48.0,45.3,29.90,SW,225,8.3,8.7,90,0.00,,,0.00,WUHU21623XXSP,2013-10-14 02:15:00,
2013-10-14 04:20:00,48.0,45.3,29.90,South,180,6.0,8.7,90,0.00,,,0.00,WUHU21623XXSP,2013-10-14 02:20:00,
2013-10-14 04:25:00,48.0,45.3,29.90,SE,135,3.1,8.5,90,0.00,,,0.00,WUHU21623XXSP,2013-10-14 02:25:00,
2013-10-14 04:30:00,48.0,45.3,29.90,South,180,6.0,12.3,90,0.00,,,0.00,WUHU21623XXSP,2013-10-14 02:30:00,
2013-10-14 04:35:00,48.0,45.3,29.90,South,180,7.8,12.3,90,0.00,,,0.00,WUHU21623XXSP,2013-10-14 02:35:00,
2013-10-14 04:40:00,48.0,45.3,29.89,ESE,112,3.8,15.7,90,0.00,,,0.00,WUHU21623XXSP,2013-10-14 02:40:00,
2013-10-14 04:45:00,48.2,45.5,29.90,SSE,157,8.3,15.7,90,0.00,,,0.00,WUHU21623XXSP,2013-10-14 02:45:00,
2013-10-14 04:50:00,48.2,45.8,29.90,South,180,5.1,8.3,91,0.00,,,0.00,WUHU21623XXSP,2013-10-14 02:50:00,
2013-10-14 04:55:00,48.2,45.8,29.89,SW,225,0.0,9.8,91,0.00,,,0.00,WUHU21623XXSP,2013-10-14 02:55:00,
2013-10-14 05:00:00,48.4,45.9,29.90,SSW,202,7.6,9.8,91,0.00,,,0.00,WUHU21623XXSP,2013-10-14 03:00:00,
2013-10-14 05:05:00,48.4,45.9,29.89,SSW,202,2.5,7.6,91,0.00,,,0.00,WUHU21623XXSP,2013-10-14 03:05:00,
2013-10-14 05:10:00,48.4,45.9,29.89,South,180,4.0,6.9,91,0.00,,,0.00,WUHU21623XXSP,2013-10-14 03:10:00,
2013-10-14 05:15:00,48.6,46.1,29.89,SE,135,7.8,7.8,91,0.00,,,0.00,WUHU21623XXSP,2013-10-14 03:15:00,
2013-10-14 05:20:00,48.6,46.1,29.89,SE,135,0.0,8.3,91,0.00,,,0.00,WUHU21623XXSP,2013-10-14 03:20:00,
2013-10-14 05:25:00,48.7,46.3,29.89,SE,135,5.6,8.3,91,0.00,,,0.00,WUHU21623XXSP,2013-10-14 03:25:00,
2013-10-14 05:30:00,48.7,46.3,29.89,South,180,2.9,7.6,91,0.00,,,0.00,WUHU21623XXSP,2013-10-14 03:30:00,
2013-10-14 05:35:00,48.7,46.3,29.89,SSE,157,2.7,11.0,91,0.00,,,0.00,WUHU21623XXSP,2013-10-14 03:35:00,
2013-10-14 05:40:00,48.7,46.3,29.89,ENE,67,3.4,11.0,91,0.00,,,0.00,WUHU21623XXSP,2013-10-14 03:40:00,
2013-10-14 05:45:00,48.7,46.3,29.89,SSE,157,15.0,15.0,91,0.00,,,0.00,WUHU21623XXSP,2013-10-14 03:45:00,
2013-10-14 05:50:00,48.9,46.4,29.89,South,180,7.6,15.0,91,0.00,,,0.00,WUHU21623XXSP,2013-10-14 03:50:00,
2013-10-14 05:55:00,48.9,46.4,29.89,SSW,202,4.5,11.0,91,0.00,,,0.00,WUHU21623XXSP,2013-10-14 03:55:00,
2013-10-14 06:00:00,48.9,46.4,29.89,WSW,247,4.0,12.5,91,0.00,,,0.00,WUHU21623XXSP,2013-10-14 04:00:00,
2013-10-14 06:01:00,48.9,46.4,29.89,SSW,202,10.1,12.5,91,0.00,,,0.00,WUHU21623XXSP,2013-10-14 04:01:00,
2013-10-14 06:02:00,48.9,46.4,29.89,South,180,5.8,12.5,91,0.00,,,0.00,WUHU21623XXSP,2013-10-14 04:02:00,
2013-10-14 06:07:00,48.9,46.4,29.89,SW,225,4.0,12.5,91,0.00,,,0.00,WUHU21623XXSP,2013-10-14 04:07:00,
2013-10-14 06:12:00,49.1,46.6,29.89,SSW,202,3.8,13.0,91,0.00,,,0.00,WUHU21623XXSP,2013-10-14 04:12:00,
2013-10-14 06:17:00,49.1,46.6,29.89,SSW,202,3.4,13.0,91,0.00,,,0.00,WUHU21623XXSP,2013-10-14 04:17:00,
2013-10-14 06:22:00,48.9,46.4,29.89,SSW,202,5.4,5.8,91,0.00,,,0.00,WUHU21623XXSP,2013-10-14 04:22:00,
2013-10-14 06:27:00,48.9,46.4,29.89,SE,135,3.8,6.5,91,0.00,,,0.00,WUHU21623XXSP,2013-10-14 04:27:00,
2013-10-14 06:32:00,49.1,46.6,29.89,SSW,202,6.3,7.6,91,0.00,,,0.00,WUHU21623XXSP,2013-10-14 04:32:00,
2013-10-14 06:37:00,48.9,46.4,29.89,SSW,202,3.6,7.6,91,0.00,,,0.00,WUHU21623XXSP,2013-10-14 04:37:00,
2013-10-14 06:42:00,49.1,46.6,29.89,South,180,5.4,6.0,91,0.00,,,0.00,WUHU21623XXSP,2013-10-14 04:42:00,
2013-10-14 06:47:00,49.1,46.6,29.89,SSW,202,4.7,6.0,91,0.00,,,0.00,WUHU21623XXSP,2013-10-14 04:47:00,
2013-10-14 06:52:00,49.1,46.6,29.90,West,270,0.0,7.8,91,0.00,,,0.00,WUHU21623XXSP,2013-10-14 04:52:00,
2013-10-14 06:57:00,49.1,46.6,29.89,SSE,157,6.0,7.8,91,0.00,,,0.00,WUHU21623XXSP,2013-10-14 04:57:00,
2013-10-14 07:02:00,49.1,46.6,29.89,SSE,157,4.7,6.3,91,0.00,,,0.00,WUHU21623XXSP,2013-10-14 05:02:00,
2013-10-14 07:07:00,49.1,46.6,29.89,WSW,247,2.0,7.2,91,0.00,,,0.00,WUHU21623XXSP,2013-10-14 05:07:00,
2013-10-14 07:12:00,49.1,46.6,29.90,SSE,157,8.7,8.7,91,0.00,,,0.00,WUHU21623XXSP,2013-10-14 05:12:00,
2013-10-14 07:17:00,49.1,46.6,29.89,SSE,157,4.5,8.7,91,0.00,,,0.00,WUHU21623XXSP,2013-10-14 05:17:00,
2013-10-14 07:22:00,49.1,46.6,29.89,SSE,157,4.9,8.5,91,0.00,,,0.00,WUHU21623XXSP,2013-10-14 05:22:00,
2013-10-14 07:27:00,49.1,46.6,29.89,SSE,157,7.4,8.5,91,0.00,,,0.00,WUHU21623XXSP,2013-10-14 05:27:00,
2013-10-14 07:32:00,49.1,46.6,29.89,SW,225,4.3,7.4,91,0.00,,,0.00,WUHU21623XXSP,2013-10-14 05:32:00,
2013-10-14 07:37:00,49.1,46.6,29.89,SW,225,7.2,7.2,91,0.00,,,0.00,WUHU21623XXSP,2013-10-14 05:37:00,
2013-10-14 07:42:00,48.9,46.4,29.89,SW,225,2.5,7.2,91,0.00,,,0.00,WUHU21623XXSP,2013-10-14 05:42:00,
2013-10-14 07:47:00,48.9,46.4,29.89,SSE,157,4.0,7.2,91,0.00,,,0.00,WUHU21623XXSP,2013-10-14 05:47:00,
2013-10-14 07:52:00,48.9,46.4,29.89,SE,135,4.5,6.7,91,0.00,,,0.00,WUHU21623XXSP,2013-10-14 05:52:00,
2013-10-14 07:57:00,48.9,46.4,29.89,WSW,247,0.9,6.0,91,0.00,,,0.00,WUHU21623XXSP,2013-10-14 05:57:00,
2013-10-14 08:02:00,48.9,46.4,29.89,SW,225,0.0,5.1,91,0.00,,,0.00,WUHU21623XXSP,2013-10-14 06:02:00,
2013-10-14 08:07:00,48.9,46.4,29.89,SE,135,3.4,4.9,91,0.00,,,0.00,WUHU21623XXSP,2013-10-14 06:07:00,
2013-10-14 08:12:00,48.9,46.4,29.89,SE,135,4.9,5.1,91,0.00,,,0.00,WUHU21623XXSP,2013-10-14 06:12:00,
2013-10-14 08:17:00,48.9,46.4,29.89,South,180,3.8,6.5,91,0.00,,,0.00,WUHU21623XXSP,2013-10-14 06:17:00,
2013-10-14 08:22:00,48.9,46.4,29.89,SSW,202,3.1,8.9,91,0.00,,,0.00,WUHU21623XXSP,2013-10-14 06:22:00,
2013-10-14 08:27:00,48.9,46.4,29.89,NNE,22,2.0,8.9,91,0.00,,,0.00,WUHU21623XXSP,2013-10-14 06:27:00,
2013-10-14 08:32:00,48.9,46.4,29.88,South,180,2.5,8.1,91,0.00,,,0.00,WUHU21623XXSP,2013-10-14 06:32:00,
2013-10-14 08:37:00,48.9,46.4,29.89,South,180,10.1,10.1,91,0.00,,,0.00,WUHU21623XXSP,2013-10-14 06:37:00,
2013-10-14 08:42:00,48.9,46.4,29.88,SSE,157,0.0,10.1,91,0.00,,,0.00,WUHU21623XXSP,2013-10-14 06:42:00,
2013-10-14 08:47:00,49.1,46.6,29.90,SSW,202,3.4,8.7,91,0.00,,,0.00,WUHU21623XXSP,2013-10-14 06:47:00,
2013-10-14 08:52:00,49.1,46.6,29.89,ESE,112,2.7,8.7,91,0.00,,,0.00,WUHU21623XXSP,2013-10-14 06:52:00,
2013-10-14 08:57:00,49.3,46.7,29.90,West,270,0.0,8.3,91,0.00,,,0.00,WUHU21623XXSP,2013-10-14 06:57:00,
2013-10-14 09:02:00,49.3,46.7,29.90,SE,135,2.9,11.9,91,0.00,,,0.00,WUHU21623XXSP,2013-10-14 07:02:00,
2013-10-14 09:07:00,49.6,47.1,29.90,South,180,5.1,11.9,91,0.00,,,0.00,WUHU21623XXSP,2013-10-14 07:07:00,
2013-10-14 09:12:00,49.6,47.1,29.90,South,180,0.0,6.3,91,0.00,,,0.00,WUHU21623XXSP,2013-10-14 07:12:00,
2013-10-14 09:17:00,49.6,46.8,29.90,East,90,3.6,6.3,90,0.00,,,0.00,WUHU21623XXSP,2013-10-14 07:17:00,
2013-10-14 09:22:00,49.8,47.0,29.90,ESE,112,1.3,9.2,90,0.00,,,0.00,WUHU21623XXSP,2013-10-14 07:22:00,
2013-10-14 09:27:00,49.8,47.0,29.90,ESE,112,2.9,9.2,90,0.00,,,0.00,WUHU21623XXSP,2013-10-14 07:27:00,
2013-10-14 09:32:00,49.8,47.0,29.89,SW,225,1.8,6.0,90,0.00,,,0.00,WUHU21623XXSP,2013-10-14 07:32:00,
2013-10-14 09:37:00,50.2,47.3,29.89,SE,135,2.7,3.8,90,0.00,,,0.00,WUHU21623XXSP,2013-10-14 07:37:00,
2013-10-14 09:42:00,50.4,47.5,29.89,SW,225,2.2,4.0,90,0.00,,,0.00,WUHU21623XXSP,2013-10-14 07:42:00,
2013-10-14 09:47:00,50.5,47.7,29.90,SSW,202,7.6,7.6,90,0.00,,,0.00,WUHU21623XXSP,2013-10-14 07:47:00,
2013-10-14 09:52:00,50.7,47.8,29.89,SSW,202,7.4,7.6,90,0.00,,,0.00,WUHU21623XXSP,2013-10-14 07:52:00,
2013-10-14 09:57:00,51.1,47.9,29.89,SSE,157,8.3,12.1,89,0.00,,,0.00,WUHU21623XXSP,2013-10-14 07:57:00,
2013-10-14 10:02:00,51.4,48.3,29.89,South,180,8.3,12.1,89,0.00,,,0.00,WUHU21623XXSP,2013-10-14 08:02:00,
2013-10-14 10:07:00,51.6,48.1,29.89,SE,135,2.5,15.7,88,0.00,,,0.00,WUHU21623XXSP,2013-10-14 08:07:00,
2013-10-14 10:12:00,51.6,48.1,29.89,SSW,202,8.9,15.7,88,0.00,,,0.00,WUHU21623XXSP,2013-10-14 08:12:00,
2013-10-14 10:17:00,51.6,48.1,29.90,South,180,8.3,10.5,88,0.00,,,0.00,WUHU21623XXSP,2013-10-14 08:17:00,
2013-10-14 10:22:00,51.8,48.3,29.89,SSE,157,4.5,13.0,88,0.00,,,0.00,WUHU21623XXSP,2013-10-14 08:22:00,
2013-10-14 10:27:00,52.0,48.5,29.89,SSW,202,2.0,13.0,88,0.00,,,0.00,WUHU21623XXSP,2013-10-14 08:27:00,
2013-10-14 10:32:00,52.0,48.2,29.89,SE,135,2.9,8.9,87,0.00,,,0.00,WUHU21623XXSP,2013-10-14 08:32:00,
2013-10-14 10:37:00,52.2,48.4,29.89,SSW,202,6.5,12.3,87,0.00,,,0.00,WUHU21623XXSP,2013-10-14 08:37:00,
2013-10-14 10:42:00,52.3,48.5,29.89,SSE,157,2.5,12.3,87,0.00,,,0.00,WUHU21623XXSP,2013-10-14 08:42:00,
2013-10-14 10:47:00,52.7,48.9,29.88,SW,225,4.3,10.7,87,0.00,,,0.00,WUHU21623XXSP,2013-10-14 08:47:00,
2013-10-14 10:52:00,52.9,49.1,29.88,SSE,157,9.8,10.7,87,0.00,,,0.00,WUHU21623XXSP,2013-10-14 08:52:00,
2013-10-14 10:57:00,52.9,48.8,29.88,South,180,11.4,11.4,86,0.00,,,0.00,WUHU21623XXSP,2013-10-14 08:57:00,
2013-10-14 11:02:00,53.1,49.0,29.89,South,180,3.6,11.4,86,0.00,,,0.00,WUHU21623XXSP,2013-10-14 09:02:00,
2013-10-14 11:07:00,53.4,49.3,29.88,SSE,157,5.8,10.7,86,0.00,,,0.00,WUHU21623XXSP,2013-10-14 09:07:00,
2013-10-14 11:12:00,53.4,49.0,29.88,SSE,157,3.8,12.5,85,0.00,,,0.00,WUHU21623XXSP,2013-10-14 09:12:00,
2013-10-14 11:17:00,53.8,49.4,29.88,SE,135,6.7,14.5,85,0.00,,,0.00,WUHU21623XXSP,2013-10-14 09:17:00,
2013-10-14 11:22:00,54.0,49.5,29.88,West,270,0.0,14.5,85,0.00,,,0.00,WUHU21623XXSP,2013-10-14 09:22:00,
2013-10-14 11:27:00,54.1,49.4,29.88,SSW,202,9.8,10.1,84,0.00,,,0.00,WUHU21623XXSP,2013-10-14 09:27:00,
2013-10-14 11:32:00,54.5,49.5,29.88,ESE,112,4.3,10.1,84,0.00,,,0.00,WUHU21623XXSP,2013-10-14 09:32:00,
2013-10-14 11:37:00,54.7,49.6,29.88,SSW,202,8.3,14.5,83,0.00,,,0.00,WUHU21623XXSP,2013-10-14 09:37:00,
2013-10-14 11:42:00,55.0,49.9,29.88,SE,135,8.9,14.5,83,0.00,,,0.00,WUHU21623XXSP,2013-10-14 09:42:00,
2013-10-14 11:47:00,55.2,49.7,29.88,South,180,2.5,11.9,82,0.00,,,0.00,WUHU21623XXSP,2013-10-14 09:47:00,
2013-10-14 11:52:00,55.9,50.5,29.88,SSE,157,5.8,11.9,82,0.00,,,0.00,WUHU21623XXSP,2013-10-14 09:52:00,
2013-10-14 11:57:00,56.3,50.8,29.88,SSW,202,5.6,6.9,82,0.00,,,0.00,WUHU21623XXSP,2013-10-14 09:57:00,
2013-10-14 12:02:00,56.3,50.5,29.88,South,180,17.2,17.2,81,0.00,,,0.00,WUHU21623XXSP,2013-10-14 10:02:00,
2013-10-14 12:07:00,56.1,50.6,29.88,South,180,6.0,17.2,82,0.00,,,0.00,WUHU21623XXSP,2013-10-14 10:07:00,
2013-10-14 12:12:00,55.9,50.5,29.88,SSW,202,6.3,12.8,82,0.00,,,0.00,WUHU21623XXSP,2013-10-14 10:12:00,
2013-10-14 12:17:00,55.8,50.6,29.88,SE,135,7.6,7.6,83,0.00,,,0.00,WUHU21623XXSP,2013-10-14 10:17:00,
2013-10-14 12:22:00,55.9,50.8,29.88,SE,135,2.5,7.6,83,0.00,,,0.00,WUHU21623XXSP,2013-10-14 10:22:00,
2013-10-14 12:27:00,55.9,50.8,29.88,WSW,247,2.0,5.8,83,0.00,,,0.00,WUHU21623XXSP,2013-10-14 10:27:00,
2013-10-14 12:32:00,55.9,51.1,29.88,SW,225,6.0,6.0,84,0.00,,,0.00,WUHU21623XXSP,2013-10-14 10:32:00,
2013-10-14 12:37:00,55.9,51.1,29.88,SSE,157,8.7,8.7,84,0.00,,,0.00,WUHU21623XXSP,2013-10-14 10:37:00,
2013-10-14 12:42:00,56.1,51.6,29.88,SSE,157,5.4,10.7,85,0.00,,,0.00,WUHU21623XXSP,2013-10-14 10:42:00,
2013-10-14 12:47:00,56.1,51.6,29.88,SSW,202,2.7,10.7,85,0.00,,,0.00,WUHU21623XXSP,2013-10-14 10:47:00,
2013-10-14 12:52:00,56.5,51.7,29.88,SSE,157,3.8,3.8,84,0.00,,,0.00,WUHU21623XXSP,2013-10-14 10:52:00,
2013-10-14 12:57:00,56.5,51.7,29.87,SW,225,8.1,8.1,84,0.00,,,0.00,WUHU21623XXSP,2013-10-14 10:57:00,
2013-10-14 13:02:00,56.7,51.8,29.88,South,180,3.6,8.1,84,0.00,,,0.00,WUHU21623XXSP,2013-10-14 11:02:00,
2013-10-14 13:07:00,56.8,52.0,29.87,SE,135,1.6,6.7,84,0.00,,,0.00,WUHU21623XXSP,2013-10-14 11:07:00,
2013-10-14 13:12:00,57.4,52.6,29.87,SSW,202,14.1,14.1,84,0.00,,,0.00,WUHU21623XXSP,2013-10-14 11:12:00,
2013-10-14 13:17:00,58.1,53.0,29.86,SE,135,0.0,14.1,83,0.00,,,0.00,WUHU21623XXSP,2013-10-14 11:17:00,
2013-10-14 13:22:00,58.5,53.0,29.86,SE,135,4.0,8.9,82,0.00,,,0.00,WUHU21623XXSP,2013-10-14 11:22:00,
2013-10-14 13:27:00,58.5,52.7,29.86,West,270,1.8,8.9,81,0.00,,,0.00,WUHU21623XXSP,2013-10-14 11:27:00,
2013-10-14 13:32:00,58.3,52.5,29.86,SW,225,2.2,10.3,81,0.00,,,0.00,WUHU21623XXSP,2013-10-14 11:32:00,
2013-10-14 13:37:00,58.8,53.0,29.86,SW,225,14.5,14.5,81,0.00,,,0.00,WUHU21623XXSP,2013-10-14 11:37:00,
2013-10-14 13:42:00,58.8,53.0,29.86,ESE,112,2.0,14.5,81,0.00,,,0.00,WUHU21623XXSP,2013-10-14 11:42:00,
2013-10-14 13:46:00,58.8,53.0,29.86,SSE,157,3.8,9.2,81,0.00,,,0.00,WUHU21623XXSP,2013-10-14 11:46:00,
2013-10-14 13:51:00,58.8,52.7,29.85,West,270,6.0,9.8,80,0.00,,,0.00,WUHU21623XXSP,2013-10-14 11:51:00,
2013-10-14 13:56:00,58.8,52.7,29.86,South,180,6.7,9.8,80,0.00,,,0.00,WUHU21623XXSP,2013-10-14 11:56:00,
2013-10-14 14:01:00,58.6,52.5,29.86,SSE,157,2.0,6.7,80,0.00,,,0.00,WUHU21623XXSP,2013-10-14 12:01:00,
2013-10-14 14:06:00,58.8,52.7,29.85,SW,225,8.9,8.9,80,0.00,,,0.00,WUHU21623XXSP,2013-10-14 12:06:00,
2013-10-14 14:11:00,58.8,52.7,29.85,SW,225,3.1,8.9,80,0.00,,,0.00,WUHU21623XXSP,2013-10-14 12:11:00,
2013-10-14 14:16:00,58.8,52.3,29.85,WSW,247,4.7,13.6,79,0.00,,,0.00,WUHU21623XXSP,2013-10-14 12:16:00,
2013-10-14 14:21:00,59.0,52.5,29.85,SSE,157,3.4,13.6,79,0.00,,,0.00,WUHU21623XXSP,2013-10-14 12:21:00,
2013-10-14 14:26:00,59.4,52.9,29.85,SW,225,5.4,10.7,79,0.00,,,0.00,WUHU21623XXSP,2013-10-14 12:26:00,
2013-10-14 14:31:00,59.0,52.2,29.85,WSW,247,6.3,10.7,78,0.00,,,0.00,WUHU21623XXSP,2013-10-14 12:31:00,
2013-10-14 14:36:00,58.8,52.0,29.84,SSE,157,3.8,11.9,78,0.00,,,0.00,WUHU21623XXSP,2013-10-14 12:36:00,
2013-10-14 14:41:00,58.8,52.0,29.84,SSW,202,3.8,11.9,78,0.00,,,0.00,WUHU21623XXSP,2013-10-14 12:41:00,
2013-10-14 14:46:00,58.8,52.0,29.84,SSW,202,2.2,9.4,78,0.00,,,0.00,WUHU21623XXSP,2013-10-14 12:46:00,
2013-10-14 14:51:00,58.8,52.3,29.84,SW,225,4.5,6.9,79,0.00,,,0.00,WUHU21623XXSP,2013-10-14 12:51:00,
2013-10-14 14:57:00,58.8,52.7,29.83,ESE,112,2.9,6.9,80,0.00,,,0.00,WUHU21623XXSP,2013-10-14 12:57:00,
2013-10-14 15:02:00,58.8,52.7,29.83,SSW,202,2.7,6.9,80,0.00,,,0.00,WUHU21623XXSP,2013-10-14 13:02:00,
2013-10-14 15:07:00,58.8,52.7,29.83,South,180,9.6,9.6,80,0.00,,,0.00,WUHU21623XXSP,2013-10-14 13:07:00,
2013-10-14 15:12:00,58.8,52.7,29.83,SSW,202,11.9,11.9,80,0.00,,,0.00,WUHU21623XXSP,2013-10-14 13:12:00,
2013-10-14 15:17:00,58.8,52.7,29.83,SSE,157,5.4,11.9,80,0.00,,,0.00,WUHU21623XXSP,2013-10-14 13:17:00,
2013-10-14 15:22:00,58.8,52.7,29.83,SE,135,6.3,9.8,80,0.00,,,0.00,WUHU21623XXSP,2013-10-14 13:22:00,
2013-10-14 15:27:00,58.8,53.0,29.83,ESE,112,2.9,9.8,81,0.00,,,0.00,WUHU21623XXSP,2013-10-14 13:27:00,
2013-10-14 15:32:00,58.8,53.3,29.83,SE,135,2.0,9.8,82,0.00,,,0.00,WUHU21623XXSP,2013-10-14 13:32:00,
2013-10-14 15:37:00,58.8,53.3,29.83,SSW,202,3.1,6.3,82,0.00,,,0.00,WUHU21623XXSP,2013-10-14 13:37:00,
2013-10-14 15:42:00,58.8,53.3,29.83,SSW,202,7.4,7.4,82,0.00,,,0.00,WUHU21623XXSP,2013-10-14 13:42:00,
2013-10-14 15:47:00,58.8,53.3,29.83,South,180,2.9,7.8,82,0.00,,,0.00,WUHU21623XXSP,2013-10-14 13:47:00,
2013-10-14 15:52:00,58.8,53.7,29.83,South,180,2.9,8.5,83,0.00,,,0.00,WUHU21623XXSP,2013-10-14 13:52:00,
2013-10-14 15:57:00,58.8,53.3,29.83,SW,225,6.3,8.5,82,0.00,,,0.00,WUHU21623XXSP,2013-10-14 13:57:00,
2013-10-14 16:02:00,58.8,53.7,29.83,South,180,5.8,9.4,83,0.00,,,0.00,WUHU21623XXSP,2013-10-14 14:02:00,
2013-10-14 16:07:00,58.6,53.5,29.82,SE,135,6.0,9.4,83,0.00,,,0.00,WUHU21623XXSP,2013-10-14 14:07:00,
2013-10-14 16:12:00,58.8,53.7,29.82,South,180,4.7,6.0,83,0.00,,,0.00,WUHU21623XXSP,2013-10-14 14:12:00,
2013-10-14 16:17:00,58.8,53.7,29.82,SSW,202,2.9,10.3,83,0.00,,,0.00,WUHU21623XXSP,2013-10-14 14:17:00,
2013-10-14 16:22:00,58.8,53.7,29.82,West,270,1.6,10.3,83,0.00,,,0.00,WUHU21623XXSP,2013-10-14 14:22:00,
2013-10-14 16:27:00,58.8,53.7,29.82,South,180,2.2,8.7,83,0.00,,,0.00,WUHU21623XXSP,2013-10-14 14:27:00,
2013-10-14 16:32:00,58.8,53.7,29.82,SSE,157,4.0,8.3,83,0.00,,,0.00,WUHU21623XXSP,2013-10-14 14:32:00,
2013-10-14 16:37:00,58.8,53.7,29.81,SSE,157,4.7,8.3,83,0.00,,,0.00,WUHU21623XXSP,2013-10-14 14:37:00,
2013-10-14 16:42:00,58.8,53.5,29.81,SE,135,0.0,4.7,84,0.00,,,0.00,WUHU21623XXSP,2013-10-14 14:42:00,
2013-10-14 16:47:00,58.6,53.8,29.81,South,180,4.7,4.7,84,0.00,,,0.00,WUHU21623XXSP,2013-10-14 14:47:00,
2013-10-14 16:52:00,58.8,53.8,29.81,SE,135,0.0,5.1,84,0.00,,,0.00,WUHU21623XXSP,2013-10-14 14:52:00,
2013-10-14 16:57:00,58.6,53.8,29.80,WNW,292,4.0,5.1,84,0.00,,,0.00,WUHU21623XXSP,2013-10-14 14:57:00,
2013-10-14 17:02:00,58.6,53.8,29.81,SSW,202,5.6,5.6,84,0.00,,,0.00,WUHU21623XXSP,2013-10-14 15:02:00,
2013-10-14 17:07:00,58.5,53.6,29.80,South,180,2.2,5.6,84,0.00,,,0.00,WUHU21623XXSP,2013-10-14 15:07:00,
2013-10-14 17:12:00,58.5,53.6,29.80,SW,225,4.7,5.4,84,0.00,,,0.00,WUHU21623XXSP,2013-10-14 15:12:00,
2013-10-14 17:17:00,58.1,52.6,29.80,South,180,3.4,8.9,82,0.00,,,0.00,WUHU21623XXSP,2013-10-14 15:17:00,
2013-10-14 17:22:00,58.3,51.4,29.80,WSW,247,3.6,8.9,78,0.00,,,0.00,WUHU21623XXSP,2013-10-14 15:22:00,
2013-10-14 17:27:00,58.3,50.4,29.80,SSW,202,2.0,5.1,75,0.00,,,0.00,WUHU21623XXSP,2013-10-14 15:27:00,
2013-10-14 17:32:00,58.5,50.5,29.80,SW,225,3.6,5.1,75,0.00,,,0.00,WUHU21623XXSP,2013-10-14 15:32:00,
2013-10-14 17:37:00,58.5,50.2,29.80,WSW,247,2.2,5.1,74,0.00,,,0.00,WUHU21623XXSP,2013-10-14 15:37:00,
2013-10-14 17:42:00,58.6,50.0,29.80,West,270,0.0,5.6,73,0.00,,,0.00,WUHU21623XXSP,2013-10-14 15:42:00,
2013-10-14 17:47:00,58.5,49.8,29.80,East,90,0.0,5.6,73,0.00,,,0.00,WUHU21623XXSP,2013-10-14 15:47:00,
2013-10-14 17:52:00,58.6,50.0,29.80,SSW,202,0.0,6.3,73,0.00,,,0.00,WUHU21623XXSP,2013-10-14 15:52:00,
2013-10-14 17:57:00,58.5,49.8,29.80,SE,135,2.7,6.3,73,0.00,,,0.00,WUHU21623XXSP,2013-10-14 15:57:00,
2013-10-14 18:02:00,58.1,50.2,29.80,South,180,5.8,5.8,75,0.00,,,0.00,WUHU21623XXSP,2013-10-14 16:02:00,
2013-10-14 18:07:00,58.3,51.8,29.80,SE,135,1.6,5.8,79,0.00,,,0.00,WUHU21623XXSP,2013-10-14 16:07:00,
2013-10-14 18:12:00,58.1,52.6,29.80,SSE,157,0.0,3.8,82,0.00,,,0.00,WUHU21623XXSP,2013-10-14 16:12:00,
2013-10-14 18:17:00,58.1,53.0,29.80,SSW,202,2.2,3.4,83,0.00,,,0.00,WUHU21623XXSP,2013-10-14 16:17:00,
2013-10-14 18:22:00,57.9,53.1,29.80,SSW,202,2.5,4.0,84,0.00,,,0.00,WUHU21623XXSP,2013-10-14 16:22:00,
2013-10-14 18:27:00,57.9,53.1,29.80,SE,135,1.3,4.0,84,0.00,,,0.00,WUHU21623XXSP,2013-10-14 16:27:00,
2013-10-14 18:32:00,57.7,53.2,29.80,SSW,202,5.8,5.8,85,0.00,,,0.00,WUHU21623XXSP,2013-10-14 16:32:00,
2013-10-14 18:37:00,57.6,53.1,29.80,SE,135,2.5,5.8,85,0.00,,,0.00,WUHU21623XXSP,2013-10-14 16:37:00,
2013-10-14 18:42:00,57.4,53.2,29.80,SSE,157,0.0,5.8,86,0.00,,,0.00,WUHU21623XXSP,2013-10-14 16:42:00,
2013-10-14 18:47:00,57.4,53.2,29.80,SSE,157,2.5,5.8,86,0.00,,,0.00,WUHU21623XXSP,2013-10-14 16:47:00,
2013-10-14 18:52:00,57.4,53.2,29.80,SW,225,4.0,5.8,86,0.00,,,0.00,WUHU21623XXSP,2013-10-14 16:52:00,
2013-10-14 18:57:00,57.4,53.2,29.79,South,180,1.6,4.5,86,0.00,,,0.00,WUHU21623XXSP,2013-10-14 16:57:00,
2013-10-14 19:02:00,57.4,52.9,29.81,NW,315,8.9,8.9,85,0.00,,,0.00,WUHU21623XXSP,2013-10-14 17:02:00,
2013-10-14 19:07:00,56.1,50.6,29.81,WNW,292,8.5,13.0,82,0.00,,,0.00,WUHU21623XXSP,2013-10-14 17:07:00,
2013-10-14 19:12:00,55.2,49.4,29.80,WNW,292,6.3,13.2,81,0.00,,,0.00,WUHU21623XXSP,2013-10-14 17:12:00,
2013-10-14 19:17:00,55.0,49.3,29.80,NNW,337,9.6,13.2,81,0.00,,,0.00,WUHU21623XXSP,2013-10-14 17:17:00,
2013-10-14 19:22:00,54.3,48.9,29.80,WNW,292,6.7,9.8,82,0.00,,,0.00,WUHU21623XXSP,2013-10-14 17:22:00,
2013-10-14 19:27:00,54.0,48.6,29.81,NW,315,5.8,9.8,82,0.00,,,0.00,WUHU21623XXSP,2013-10-14 17:27:00,
2013-10-14 19:32:00,53.8,48.4,29.81,NW,315,14.1,14.3,82,0.00,,,0.00,WUHU21623XXSP,2013-10-14 17:32:00,
2013-10-14 19:37:00,53.8,48.4,29.81,WNW,292,11.2,14.3,82,0.00,,,0.00,WUHU21623XXSP,2013-10-14 17:37:00,
2013-10-14 19:42:00,53.4,48.4,29.81,NW,315,5.4,11.2,83,0.00,,,0.00,WUHU21623XXSP,2013-10-14 17:42:00,
2013-10-14 19:47:00,53.2,48.5,29.82,West,270,5.8,10.3,84,0.00,,,0.00,WUHU21623XXSP,2013-10-14 17:47:00,
2013-10-14 19:52:00,53.2,48.5,29.81,WNW,292,14.1,15.0,84,0.00,,,0.00,WUHU21623XXSP,2013-10-14 17:52:00,
2013-10-14 19:57:00,53.1,48.3,29.81,NW,315,7.2,15.0,84,0.00,,,0.00,WUHU21623XXSP,2013-10-14 17:57:00,
2013-10-14 20:02:00,53.1,48.7,29.81,West,270,2.9,14.3,85,0.00,,,0.00,WUHU21623XXSP,2013-10-14 18:02:00,
2013-10-14 20:07:00,53.2,48.8,29.81,NW,315,6.7,9.6,85,0.00,,,0.00,WUHU21623XXSP,2013-10-14 18:07:00,
2013-10-14 20:12:00,53.2,48.8,29.82,WSW,247,6.7,9.6,85,0.00,,,0.00,WUHU21623XXSP,2013-10-14 18:12:00,
2013-10-14 20:17:00,53.2,48.5,29.82,WNW,292,5.8,8.1,84,0.00,,,0.00,WUHU21623XXSP,2013-10-14 18:17:00,
2013-10-14 20:22:00,53.2,48.5,29.82,West,270,4.3,11.2,84,0.00,,,0.00,WUHU21623XXSP,2013-10-14 18:22:00,
2013-10-14 20:27:00,53.4,48.7,29.82,WSW,247,4.7,11.2,84,0.00,,,0.00,WUHU21623XXSP,2013-10-14 18:27:00,
2013-10-14 20:32:00,53.2,48.5,29.82,West,270,6.9,6.9,84,0.00,,,0.00,WUHU21623XXSP,2013-10-14 18:32:00,
2013-10-14 20:37:00,53.2,48.5,29.82,WNW,292,4.9,7.6,84,0.00,,,0.00,WUHU21623XXSP,2013-10-14 18:37:00,
2013-10-14 20:42:00,52.9,48.5,29.82,SW,225,5.8,7.6,85,0.00,,,0.00,WUHU21623XXSP,2013-10-14 18:42:00,
2013-10-14 20:47:00,52.9,48.5,29.82,WSW,247,6.0,7.4,85,0.00,,,0.00,WUHU21623XXSP,2013-10-14 18:47:00,
2013-10-14 20:52:00,53.1,48.7,29.82,SW,225,10.3,10.3,85,0.00,,,0.00,WUHU21623XXSP,2013-10-14 18:52:00,
2013-10-14 20:57:00,53.2,48.8,29.82,West,270,2.0,10.3,85,0.00,,,0.00,WUHU21623XXSP,2013-10-14 18:57:00,
2013-10-14 21:02:00,53.4,49.0,29.82,SW,225,6.5,9.8,85,0.00,,,0.00,WUHU21623XXSP,2013-10-14 19:02:00,
2013-10-14 21:07:00,53.4,48.7,29.82,West,270,2.5,9.8,84,0.00,,,0.00,WUHU21623XXSP,2013-10-14 19:07:00,
2013-10-14 21:12:00,53.4,48.7,29.81,West,270,2.7,8.9,84,0.00,,,0.00,WUHU21623XXSP,2013-10-14 19:12:00,
2013-10-14 21:17:00,53.4,48.7,29.82,WSW,247,4.0,8.9,84,0.00,,,0.00,WUHU21623XXSP,2013-10-14 19:17:00,
2013-10-14 21:22:00,53.6,48.9,29.81,West,270,3.8,5.4,84,0.00,,,0.00,WUHU21623XXSP,2013-10-14 19:22:00,
2013-10-14 21:27:00,53.4,48.7,29.81,West,270,4.7,6.9,84,0.00,,,0.00,WUHU21623XXSP,2013-10-14 19:27:00,
2013-10-14 21:32:00,53.4,48.7,29.82,West,270,5.6,6.9,84,0.00,,,0.00,WUHU21623XXSP,2013-10-14 19:32:00,
2013-10-14 21:37:00,53.4,48.7,29.82,WSW,247,3.6,7.2,84,0.00,,,0.00,WUHU21623XXSP,2013-10-14 19:37:00,
2013-10-14 21:42:00,53.4,48.7,29.82,West,270,0.9,9.8,84,0.00,,,0.00,WUHU21623XXSP,2013-10-14 19:42:00,
2013-10-14 21:47:00,53.2,48.5,29.82,WSW,247,3.1,9.8,84,0.00,,,0.00,WUHU21623XXSP,2013-10-14 19:47:00,
2013-10-14 21:52:00,53.4,48.7,29.82,West,270,0.9,9.4,84,0.00,,,0.00,WUHU21623XXSP,2013-10-14 19:52:00,
2013-10-14 21:57:00,53.2,48.5,29.82,SW,225,6.7,8.7,84,0.00,,,0.00,WUHU21623XXSP,2013-10-14 19:57:00,
2013-10-14 22:02:00,53.2,48.5,29.82,SW,225,4.5,8.7,84,0.00,,,0.00,WUHU21623XXSP,2013-10-14 20:02:00,
2013-10-14 22:07:00,53.4,48.7,29.82,SW,225,4.5,5.1,84,0.00,,,0.00,WUHU21623XXSP,2013-10-14 20:07:00,
2013-10-14 22:12:00,53.4,48.7,29.82,WSW,247,2.2,5.4,84,0.00,,,0.00,WUHU21623XXSP,2013-10-14 20:12:00,
2013-10-14 22:17:00,53.4,48.7,29.82,SW,225,4.9,5.4,84,0.00,,,0.00,WUHU21623XXSP,2013-10-14 20:17:00,
2013-10-14 22:22:00,53.4,48.7,29.82,SW,225,3.8,4.9,84,0.00,,,0.00,WUHU21623XXSP,2013-10-14 20:22:00,
2013-10-14 22:27:00,53.6,48.9,29.82,WSW,247,2.5,4.5,84,0.00,,,0.00,WUHU21623XXSP,2013-10-14 20:27:00,
2013-10-14 22:32:00,53.8,49.0,29.82,South,180,4.0,7.2,84,0.00,,,0.00,WUHU21623XXSP,2013-10-14 20:32:00,
2013-10-14 22:37:00,53.4,48.7,29.82,WSW,247,5.6,7.2,84,0.00,,,0.00,WUHU21623XXSP,2013-10-14 20:37:00,
2013-10-14 22:42:00,53.2,48.5,29.82,WSW,247,0.0,5.6,84,0.00,,,0.00,WUHU21623XXSP,2013-10-14 20:42:00,
2013-10-14 22:47:00,53.2,48.8,29.82,West,270,0.0,3.6,85,0.00,,,0.00,WUHU21623XXSP,2013-10-14 20:47:00,
2013-10-14 22:52:00,52.9,48.5,29.82,SW,225,0.0,6.5,85,0.00,,,0.00,WUHU21623XXSP,2013-10-14 20:52:00,
2013-10-14 22:57:00,52.5,48.6,29.82,WSW,247,2.5,6.5,86,0.00,,,0.00,WUHU21623XXSP,2013-10-14 20:57:00,
2013-10-14 23:02:00,52.5,48.4,29.82,WSW,247,2.0,4.0,86,0.00,,,0.00,WUHU21623XXSP,2013-10-14 21:02:00,
2013-10-14 23:07:00,52.7,48.6,29.82,West,270,2.2,5.6,86,0.00,,,0.00,WUHU21623XXSP,2013-10-14 21:07:00,
2013-10-14 23:12:00,52.7,48.6,29.82,WSW,247,3.4,5.6,86,0.00,,,0.00,WUHU21623XXSP,2013-10-14 21:12:00,
2013-10-14 23:17:00,52.7,48.6,29.82,West,270,3.6,7.6,86,0.00,,,0.00,WUHU21623XXSP,2013-10-14 21:17:00,
2013-10-14 23:22:00,52.7,48.6,29.82,WSW,247,3.6,7.6,86,0.00,,,0.00,WUHU21623XXSP,2013-10-14 21:22:00,
2013-10-14 23:27:00,52.9,48.8,29.82,SSW,202,2.0,9.2,86,0.00,,,0.00,WUHU21623XXSP,2013-10-14 21:27:00,
2013-10-14 23:32:00,52.9,48.8,29.82,SW,225,6.0,9.2,86,0.00,,,0.00,WUHU21623XXSP,2013-10-14 21:32:00,
2013-10-14 23:37:00,52.9,48.5,29.83,SW,225,3.6,6.0,85,0.00,,,0.00,WUHU21623XXSP,2013-10-14 21:37:00,
2013-10-14 23:42:00,53.1,48.7,29.82,WSW,247,2.5,4.7,85,0.00,,,0.00,WUHU21623XXSP,2013-10-14 21:42:00,
2013-10-14 23:47:00,53.2,48.8,29.83,SW,225,1.1,5.6,85,0.00,,,0.00,WUHU21623XXSP,2013-10-14 21:47:00,
2013-10-14 23:52:00,53.2,48.8,29.83,WSW,247,4.9,5.6,85,0.00,,,0.00,WUHU21623XXSP,2013-10-14 21:52:00,
2013-10-14 23:57:00,53.2,48.8,29.83,WSW,247,5.4,7.6,85,0.00,,,0.00,WUHU21623XXSP,2013-10-14 21:57:00,